Location: Unspecified
(0.0000°N, 0.0000°E)
Time: 06:46:39
(UTC+00:00)

N. Korean satellite - Pass Details

Date: 25 July 2021
Orbit: 451 x 498 km, 97.2° (Epoch: 31 July)

Event Time Altitude Azimuth Distance (km) Brightness Sun altitude
Rises 04:15:40 0° 37° (NE) 2,501 11.1 -26.0°
Reaches altitude 10° 04:18:14 10° 57° (ENE) 1,619 10.2 -25.4°
Maximum altitude 04:20:36 18° 101° (E) 1,224 9.2 -24.8°
Drops below altitude 10° 04:22:58 10° 144° (SE) 1,607 9.3 -24.3°
Enters shadow 04:23:30 - 150° (SSE) 1,768 9.5 -24.2°
